Location: Unspecified
(0.0000°N, 0.0000°E)
Time: 02:37:18
(UTC+01:00)

Haruka - Visible Passes

Search period start: 14 February 2016 00:00
Search period end: 24 February 2016 00:00
Orbit: 524 x 21238 km, 31.1° (Epoch: 12 February)

Date Brightness Start Highest point End Pass type
(mag) Time Alt. Az. Time Alt. Az. Time Alt. Az.
14 Feb 7.5 20:37:38 10° WSW 01:06:25 59° S 01:06:25 59° S visible
15 Feb 7.7 23:13:56 10° WSW 02:10:12 46° SW 02:10:12 46° SW visible
16 Feb 8.2 15:39:56 10° WNW 16:13:16 73° SW 20:50:18 10° ESE visible
17 Feb 8.1 02:38:02 10° WSW 03:14:01 26° WSW 03:14:01 26° WSW visible
17 Feb 8.2 16:50:22 10° W 17:49:32 59° SSW 22:01:56 19° ESE visible
18 Feb6.204:49:50NNE04:49:50NNE04:17:54WSWvisible
18 Feb 7.8 18:04:20 10° W 22:36:33 51° SSE 23:05:51 40° SE visible
19 Feb 7.6 19:25:57 10° WSW 00:08:47 59° SSE 00:09:48 59° SSE visible
20 Feb 7.7 21:09:41 10° WSW 01:13:48 57° SSW 01:13:48 57° SSW visible
21 Feb 7.8 14:42:56 10° WNW 15:06:48 78° SW 19:44:55 10° ESE visible
22 Feb 8.0 00:33:26 10° SW 02:17:49 37° WSW 02:17:49 37° WSW visible
22 Feb 8.4 15:52:15 10° WNW 16:33:12 63° SSW 21:05:52 12° ESE visible
23 Feb 8.4 03:05:54 10° WSW 03:21:53 17° WSW 03:21:53 17° WSW visible
23 Feb 8.0 17:04:05 10° W 18:25:32 52° SSW 22:09:57 31° ESE visible
